YAOGAN-28 (41026 NORAD) Tracking and Keplerian Element Data

This shows tracking and keplerian element data for the satellite.

Feedback or suggestion? Click here.




ElementValue
Catalog41026
NameYAOGAN-28
Epoch Orbit51481
Epoch Day35.21510887
Epoch Year2025
RAAN182.9968
Inclination97.236
Eccentricity0.0011628
Argument of Perigee129.7752
Mean Anonmoly230.4511
Mean Motion15.2386507
Decay Rate0.00015598
L11 41026U 15064A 25035.21510887 .00015598 00000+0 64743-3 0 9990
L22 41026 97.2360 182.9968 0011628 129.7752 230.4511 15.23865070514818



Live tracking and technical data element details for YAOGAN-28 (NORAD 41026). YAOGAN-28 can be tracked NOW for your location showing map with azimuth and elevation plus other details from your city location.







IsCatalogInMostPopularTable: catalog: 41026, numindb: 597
Update: records affected: 1



GetName: 41026 YAOGAN-28

Hit Count: updated at: Fri, 16 May 2025 11:53:03 GMT